This is the latest recevied weather packets stored in our database for station/object I3RKE-10. If no packets are shown the sender has not sent any weather packets the latest 10 day(s).
| Time | Temp. | Humidity | Pressure | Rain* | Wind** | Luminosity | Snow |
|---|---|---|---|---|---|---|---|
| 1778117235 | 12.22° C | 89% | 1005.2 hPa | - | - | - | - |
| 1778116335 | 12.78° C | 89% | 1005.3 hPa | - | - | - | - |
| 1778115435 | 12.78° C | 90% | 1005.3 hPa | - | - | - | - |
| 1778114535 | 12.78° C | 90% | 1005.2 hPa | - | - | - | - |
| 1778113635 | 13.33° C | 89% | 1005.3 hPa | - | - | - | - |
| 1778112735 | 13.33° C | 89% | 1005.3 hPa | - | - | - | - |
| 1778111835 | 12.78° C | 89% | 1005.3 hPa | - | - | - | - |
| 1778110935 | 13.33° C | 89% | 1005.3 hPa | - | - | - | - |
| 1778110035 | 13.33° C | 88% | 1005.2 hPa | - | - | - | - |
| 1778109135 | 13.33° C | 89% | 1005.3 hPa | - | - | - | - |
| 1778108235 | 13.33° C | 89% | 1005.2 hPa | - | - | - | - |
| 1778107334 | 13.33° C | 90% | 1005.3 hPa | - | - | - | - |
| 1778106434 | 13.33° C | 90% | 1005.4 hPa | - | - | - | - |
| 1778105534 | 13.33° C | 89% | 1005.3 hPa | - | - | - | - |
| 1778104634 | 13.89° C | 89% | 1005.4 hPa | - | - | - | - |
| 1778103734 | 13.89° C | 89% | 1005.5 hPa | - | - | - | - |
| 1778102834 | 13.89° C | 89% | 1005.4 hPa | - | - | - | - |
| 1778101934 | 14.44° C | 89% | 1005.4 hPa | - | - | - | - |
| 1778101034 | 14.44° C | 88% | 1005.3 hPa | - | - | - | - |
| 1778100134 | 15° C | 88% | 1005.2 hPa | - | - | - | - |
| 1778099234 | 14.44° C | 89% | 1005.1 hPa | - | - | - | - |
| 1778098334 | 15° C | 87% | 1005 hPa | - | - | - | - |
| 1778097433 | 15° C | 88% | 1004.9 hPa | - | - | - | - |
| 1778096534 | 15.56° C | 87% | 1004.7 hPa | - | - | - | - |
| 1778095633 | 15.56° C | 87% | 1004.7 hPa | - | - | - | - |
* Rain since midnight (hover to see other rain measurements)
** Current wind speed in m/s (hover to see current wind gust speed)